Hourly Data Report for October 05, 2017

All times are specified in Local Standard Time (LST). Add 1 hour to adjust for Daylight Saving Time where and when it is observed.

PETAWAWA AWOS 2
ONTARIO

45°57'00.000" N
77°19'00.000" W
130.10 m
6106396
71625
YWA

Download Data

Hourly Data (October 2017)
Hourly Data Report for October 5, 2017
Temp Definition
°C
Dew Point Temp Definition
°C
Rel Hum Definition
%
Wind Dir Definition
10's deg

Wind Spd Definition
km/h
Visibility Definition
km
Stn Press Definition
kPa
Hmdx Definition


Wind Chill Definition


Weather Definition


TIME
00:00 12.9 10.9 88 27 9 14.5 100.21     LegendNANA
01:00 11.0 10.1 94   0 14.5 100.26     LegendNANA
02:00 8.7 8.4 98   0 11.3 100.24     LegendNANA
03:00 10.0 9.3 95 34 4 14.5 100.26     LegendNANA
04:00 7.4 7.2 99   0 14.5 100.28     LegendNANA
05:00 7.2 7.0 99   0 1.0 100.26     LegendNANA
06:00 6.3 6.3 100   0 8.0 100.28     LegendNANA
07:00 6.0 6.0 100   0 14.5 100.25     LegendNANA
08:00 10.4 8.7 89 30 4 14.5 100.25     LegendNANA
09:00 12.0 8.7 80 29 4 14.5 100.24     LegendNANA
10:00 13.9 8.2 68 26 9 14.5 100.19     LegendNANA
11:00 14.9 8.0 63 24 11 14.5 100.13     LegendNANA
12:00 15.8 8.0 60 28 9 14.5 100.07     LegendNANA
13:00 16.0 8.0 59 30 13 14.5 99.99     LegendNANA
14:00 16.0 8.6 62 29 11 14.5 99.97     LegendNANA
15:00 16.3 8.0 58 27 9 14.5 99.92     LegendNANA
16:00 15.9 8.7 62 27 4 14.5 99.91     LegendNANA
17:00 15.6 9.0 65   0 14.5 99.90     LegendNANA
18:00 13.9 10.0 77 34 6 14.5 99.93     LegendNANA
19:00 12.1 10.8 92 23 4 14.5 100.00     LegendNANA
20:00 10.4 9.2 92 22 6 14.5 100.04     LegendNANA
21:00 9.6 8.0 90 24 6 14.5 100.05     LegendNANA
22:00 7.9 6.9 93 23 4 14.5 100.07     LegendNANA
23:00 9.0 8.0 93   0 14.5 100.06     LegendNANA

Notes on Data Quality.

Legend

  • E = Estimated
  • M = Missing
  • NA = Not Available
  • ‡ = Partner data that is not subject to review by the National Climate Archives
Date modified: